When you browse on this site, cookies collect data to enhance your experience and personalize the content and advertising you see.
Visit our Privacy Policy to learn more. By continuing to use the site, you agree to this use of cookies and data.
  • In Österreich
  • Länderverzeichnis
  • Für 7 Tage
  • Wassertemperatur
  • Satellitenkarten
  • Wetterkarte
  • News
  • Widgets
  • user-avatar
    Anmelden

    Stündliche Wetter Jasiony

    Heute, 18 Februar, Montag

    Zeit Temperatur Niederschläge Wind Luftdruck Luftfeuchtigkeit
    00:00 +6°C° 0 mm 1 m/S 756 mmHg 91%
    01:00 +6°C° 0 mm 1 m/S 756 mmHg 91%
    02:00 +5°C° 0 mm 1 m/S 756 mmHg 91%
    03:00 +5°C° 0 mm 1 m/S 756 mmHg 91%
    04:00 +5°C° 0 mm 1 m/S 756 mmHg 91%
    05:00 +5°C° 0 mm 1 m/S 756 mmHg 91%
    06:00 +5°C° 0 mm 1 m/S 756 mmHg 92%
    07:00 +5°C° 0 mm 1 m/S 756 mmHg 92%
    08:00 +5°C° 0 mm 2 m/S 756 mmHg 90%
    09:00 +5°C° 0 mm 2 m/S 756 mmHg 88%
    10:00 +5°C° 0 mm 3 m/S 756 mmHg 86%
    11:00 +7°C° 0 mm 3 m/S 755 mmHg 82%
    12:00 +8°C° 0 mm 3 m/S 755 mmHg 78%
    13:00 +9°C° 0 mm 3 m/S 755 mmHg 74%
    14:00 +9°C° 0 mm 3 m/S 754 mmHg 75%
    15:00 +8°C° 0 mm 3 m/S 754 mmHg 76%
    16:00 +8°C° 0 mm 3 m/S 754 mmHg 77%
    17:00 +7°C° 0 mm 3 m/S 753 mmHg 81%
    18:00 +5°C° 0 mm 3 m/S 753 mmHg 84%
    19:00 +4°C° 0 mm 3 m/S 753 mmHg 88%
    20:00 +4°C° 0 mm 3 m/S 753 mmHg 87%
    21:00 +3°C° 0 mm 3 m/S 752 mmHg 86%
    22:00 +3°C° 0 mm 3 m/S 752 mmHg 85%
    23:00 +2°C° 0 mm 3 m/S 752 mmHg 84%

    Morgen, 19 Februar, Dienstag

    Zeit Temperatur Niederschläge Wind Luftdruck Luftfeuchtigkeit
    00:00 +2°C° 0 mm 3 m/S 752 mmHg 83%
    01:00 +2°C° 0 mm 3 m/S 752 mmHg 82%
    02:00 +1°C° 0 mm 3 m/S 751 mmHg 82%
    03:00 +1°C° 0 mm 3 m/S 751 mmHg 82%
    04:00 +1°C° 0 mm 3 m/S 750 mmHg 82%
    05:00 +1°C° 0 mm 3 m/S 750 mmHg 84%
    06:00 0°C° 0 mm 3 m/S 749 mmHg 86%
    07:00 0°C° 0 mm 3 m/S 749 mmHg 87%
    08:00 +1°C° 0 mm 4 m/S 749 mmHg 80%
    09:00 +3°C° 0 mm 4 m/S 749 mmHg 73%
    10:00 +3°C° 0 mm 5 m/S 748 mmHg 66%
    11:00 +6°C° 0 mm 5 m/S 748 mmHg 63%
    12:00 +7°C° 0 mm 6 m/S 748 mmHg 60%
    13:00 +8°C° 0 mm 6 m/S 748 mmHg 57%
    14:00 +8°C° 0 mm 6 m/S 747 mmHg 60%
    15:00 +7°C° 0 mm 5 m/S 747 mmHg 62%
    16:00 +7°C° 0 mm 4 m/S 747 mmHg 65%
    17:00 +7°C° 0.2 mm 5 m/S 747 mmHg 72%
    18:00 +6°C° 0.2 mm 5 m/S 747 mmHg 78%
    19:00 +6°C° 0.2 mm 5 m/S 747 mmHg 85%
    20:00 +5°C° 0.4 mm 5 m/S 748 mmHg 86%
    21:00 +5°C° 0.4 mm 4 m/S 748 mmHg 88%
    22:00 +4°C° 0.4 mm 4 m/S 748 mmHg 90%
    23:00 +4°C° 0 mm 4 m/S 748 mmHg 88%

    übermorgen, 20 Februar, Mittwoch

    Zeit Temperatur Niederschläge Wind Luftdruck Luftfeuchtigkeit
    00:00 +3°C° 0 mm 5 m/S 748 mmHg 87%
    01:00 +3°C° 0 mm 5 m/S 748 mmHg 85%
    02:00 +3°C° 0 mm 5 m/S 748 mmHg 86%
    03:00 +2°C° 0 mm 5 m/S 748 mmHg 87%
    04:00 +2°C° 0 mm 5 m/S 749 mmHg 87%
    05:00 +2°C° 0 mm 5 m/S 749 mmHg 86%
    06:00 +2°C° 0 mm 5 m/S 749 mmHg 84%
    07:00 +2°C° 0 mm 5 m/S 749 mmHg 83%
    08:00 +3°C° 0 mm 6 m/S 750 mmHg 80%
    09:00 +3°C° 0 mm 6 m/S 750 mmHg 77%
    10:00 +4°C° 0 mm 7 m/S 750 mmHg 74%
    11:00 +4°C° 0.1 mm 7 m/S 751 mmHg 75%
    12:00 +4°C° 0.1 mm 7 m/S 751 mmHg 75%
    13:00 +4°C° 0.1 mm 7 m/S 751 mmHg 76%
    14:00 +4°C° 0.1 mm 7 m/S 751 mmHg 75%
    15:00 +4°C° 0.1 mm 7 m/S 751 mmHg 75%
    16:00 +4°C° 0.1 mm 7 m/S 751 mmHg 74%
    17:00 +3°C° 0 mm 6 m/S 752 mmHg 77%
    18:00 +3°C° 0 mm 6 m/S 752 mmHg 80%
    19:00 +2°C° 0 mm 5 m/S 752 mmHg 83%
    20:00 +2°C° 0 mm 5 m/S 752 mmHg 85%
    21:00 +3°C° 0 mm 5 m/S 752 mmHg 86%
    22:00 +3°C° 0 mm 5 m/S 752 mmHg 88%
    23:00 +3°C° 0.1 mm 5 m/S 753 mmHg 89%

    21 Februar, Donnerstag

    Zeit Temperatur Niederschläge Wind Luftdruck Luftfeuchtigkeit
    00:00 +3°C° 0.1 mm 5 m/S 753 mmHg 90%
    01:00 +3°C° 0.1 mm 5 m/S 753 mmHg 90%
    02:00 +3°C° 0.1 mm 5 m/S 753 mmHg 90%
    03:00 +3°C° 0.1 mm 5 m/S 752 mmHg 91%
    04:00 +2°C° 0.1 mm 5 m/S 752 mmHg 91%
    05:00 +2°C° 0.3 mm 5 m/S 752 mmHg 92%
    06:00 +2°C° 0.3 mm 5 m/S 752 mmHg 92%
    07:00 +2°C° 0.3 mm 5 m/S 752 mmHg 93%
    08:00 +2°C° 0.3 mm 5 m/S 753 mmHg 92%
    09:00 +3°C° 0.3 mm 5 m/S 753 mmHg 91%
    10:00 +3°C° 0.3 mm 5 m/S 753 mmHg 91%
    11:00 +4°C° 0.3 mm 4 m/S 753 mmHg 91%
    12:00 +4°C° 0.3 mm 4 m/S 753 mmHg 91%
    13:00 +5°C° 0.3 mm 4 m/S 753 mmHg 91%
    14:00 +4°C° 0.4 mm 3 m/S 753 mmHg 92%
    15:00 +4°C° 0.4 mm 3 m/S 753 mmHg 94%
    16:00 +5°C° 0.4 mm 2 m/S 754 mmHg 95%
    17:00 +5°C° 0.1 mm 2 m/S 754 mmHg 96%
    18:00 +5°C° 0.1 mm 2 m/S 755 mmHg 96%
    19:00 +5°C° 0.1 mm 2 m/S 755 mmHg 97%
    20:00 +5°C° 0.1 mm 2 m/S 756 mmHg 96%
    21:00 +5°C° 0.1 mm 2 m/S 757 mmHg 96%
    22:00 +5°C° 0.1 mm 2 m/S 757 mmHg 96%
    23:00 +4°C° 0.1 mm 2 m/S 758 mmHg 94%

    22 Februar, Freitag

    Zeit Temperatur Niederschläge Wind Luftdruck Luftfeuchtigkeit
    00:00 +2°C° 0.1 mm 3 m/S 758 mmHg 91%
    01:00 +2°C° 0.1 mm 3 m/S 759 mmHg 88%
    02:00 +1°C° 0 mm 3 m/S 759 mmHg 85%
    03:00 +2°C° 0 mm 2 m/S 760 mmHg 82%
    04:00 +1°C° 0 mm 2 m/S 760 mmHg 79%
    05:00 -1°C° 0 mm 2 m/S 761 mmHg 76%
    06:00 -1°C° 0 mm 2 m/S 762 mmHg 73%
    07:00 -1°C° 0 mm 2 m/S 762 mmHg 69%
    08:00 -1°C° 0 mm 2 m/S 763 mmHg 61%
    09:00 +1°C° 0 mm 2 m/S 764 mmHg 54%
    10:00 +2°C° 0 mm 2 m/S 765 mmHg 46%
    11:00 +2°C° 0 mm 2 m/S 765 mmHg 42%
    12:00 +3°C° 0 mm 2 m/S 765 mmHg 39%
    13:00 +4°C° 0 mm 2 m/S 766 mmHg 35%
    14:00 +4°C° 0 mm 2 m/S 766 mmHg 36%
    15:00 +4°C° 0 mm 2 m/S 766 mmHg 38%
    16:00 +4°C° 0 mm 2 m/S 767 mmHg 39%
    17:00 +3°C° 0 mm 2 m/S 767 mmHg 43%
    18:00 +2°C° 0 mm 2 m/S 768 mmHg 48%
    19:00 +1°C° 0 mm 2 m/S 768 mmHg 52%
    20:00 -1°C° 0 mm 2 m/S 768 mmHg 53%
    21:00 -1°C° 0 mm 2 m/S 768 mmHg 54%
    22:00 -1°C° 0 mm 2 m/S 769 mmHg 55%
    23:00 -1°C° 0 mm 2 m/S 769 mmHg 54%

    23 Februar, Samstag

    Zeit Temperatur Niederschläge Wind Luftdruck Luftfeuchtigkeit
    00:00 -1°C° 0 mm 2 m/S 769 mmHg 54%
    01:00 -1°C° 0 mm 2 m/S 769 mmHg 53%
    02:00 -1°C° 0 mm 2 m/S 769 mmHg 54%
    03:00 -1°C° 0 mm 2 m/S 769 mmHg 54%
    04:00 -1°C° 0 mm 2 m/S 769 mmHg 55%
    05:00 -1°C° 0 mm 2 m/S 769 mmHg 55%
    06:00 -1°C° 0 mm 2 m/S 768 mmHg 56%
    07:00 -1°C° 0 mm 2 m/S 768 mmHg 57%
    08:00 0°C° 0 mm 3 m/S 768 mmHg 54%
    09:00 +1°C° 0 mm 3 m/S 768 mmHg 52%
    10:00 +1°C° 0 mm 4 m/S 768 mmHg 50%
    11:00 +3°C° 0 mm 4 m/S 767 mmHg 55%
    12:00 +4°C° 0 mm 4 m/S 767 mmHg 60%
    13:00 +3°C° 0 mm 5 m/S 767 mmHg 66%
    14:00 +4°C° 0 mm 4 m/S 766 mmHg 70%
    15:00 +5°C° 0 mm 4 m/S 766 mmHg 75%
    16:00 +5°C° 0 mm 4 m/S 765 mmHg 79%
    17:00 +4°C° 0 mm 4 m/S 765 mmHg 83%
    18:00 +4°C° 0 mm 3 m/S 765 mmHg 86%
    19:00 +3°C° 0 mm 3 m/S 765 mmHg 90%
    20:00 +3°C° 0 mm 3 m/S 765 mmHg 91%
    21:00 +3°C° 0 mm 3 m/S 764 mmHg 93%
    22:00 +2°C° 0 mm 3 m/S 764 mmHg 94%
    23:00 +2°C° 0 mm 3 m/S 764 mmHg 95%
    Mehr zeigen